"Pseudo-MPEC" for C1HM9W2

Created 2019 Dec 4 16:07:14 UT using Find_Orb

Click here for an explanation of pseudo-MPECs

 
 Astrometry: 
     C1HM9W2  C2019 12 02.40663 08 09 32.87 +29 51 54.1    ~C2Ab 19.6 GVNEOCPG96
     C1HM9W2  C2019 12 02.41189 08 09 36.28 +29 52 43.8    ~C2Ab 19.6 GVNEOCPG96
     C1HM9W2  C2019 12 02.41715 08 09 39.71 +29 53 33.9    ~C2Ab 19.4 GVNEOCPG96
     C1HM9W2  C2019 12 02.42239 08 09 43.11 +29 54 23.0    ~C2Ab 19.6 GVNEOCPG96
     C1HM9W2  C2019 12 02.44058 08 09 54.96 +29 57 14.7    ~C2Aq 19.4 GVNEOCPI52
     C1HM9W2  C2019 12 02.44099 08 09 55.23 +29 57 18.5    ~C2Aq 19.5 GVNEOCPI52
     C1HM9W2  C2019 12 02.44141 08 09 55.50 +29 57 22.5    ~C2Aq 19.4 GVNEOCPI52
     C1HM9W2  C2019 12 02.44183 08 09 55.76 +29 57 26.4    ~C2Aq 19.6 GVNEOCPI52
     C1HM9W2  C2019 12 02.47985 08 10 20.61 +30 03 24.9    ~C2Bq 19.0 GVNEOCPI52
     C1HM9W2  C2019 12 02.48027 08 10 20.88 +30 03 28.5    ~C2Bq 19.3 GVNEOCPI52
     C1HM9W2  C2019 12 02.48069 08 10 21.15 +30 03 32.8    ~C2Bq 19.4 GVNEOCPI52
     C1HM9W2  C2019 12 02.48111 08 10 21.43 +30 03 36.8    ~C2Bq 19.3 GVNEOCPI52
     C1HM9W2 KC2019 12 02?R^Jwe3Yh'0ACj%xHlh2NnsK'6n1D?D$BuCU.16RY.W21$wRHpW*K88
     C1HM9W2 KC2019 12 02aL^Lp$jn\fi%BRj2pwlYT$j2XgZ8vy#KL'p@=\cvX;fkf=]Er;i^K88
     C1HM9W2 KC2019 12 02M0#-HSGU)s'dC!'%d#^ZCOafy3[hK.xNo!'uH\Xu=B#x]Z\q$eq?K88
     C1HM9W2 KC2019 12 03+p,f8WNj`Ckgsn$QCANb:Q:w2vHj;?cFiI2'`K@]q.0ef.ajJ!udL01
     C1HM9W2 KC2019 12 03Ra:QUsnUb=gCx'o?@O+FEm.5c1\prwp$,DLb,j)*BeS:^sAg$g3qL01
     C1HM9W2 KC2019 12 03Oi9g/`WY=WjYd4=n0(!K@tF-x3tI=wmVdM?$*RvG0A'NUDvfwkq7L01
     C1HM9W2 KC2019 12 03aI$\LAYsQwFJP#RRgs3;O1kokh:k9QRbUh4QG.(y.SU_0-kw'$l0L01
     C1HM9W2  C2019 12 03i]YZKs%dJWYFn0GV9eFU$VcoSjMyT\3Pa,U%0f+ifSh0mhu9DSoaF52
     C1HM9W2  C2019 12 03HQO!_k7ruxX*#hpbW7;1%K$G=kSfRUh]*CBOZn$XL.5:%wr9)ubBF52
     C1HM9W2  C2019 12 03.58616708 23 31.07 +33 00 50.4    ~C3Jq 19.46oVNEOCPT05
     C1HM9W2  C2019 12 03.58902308 23 33.11 +33 01 18.2    ~C3Jq 19.14oVNEOCPT05
     C1HM9W2  C2019 12 03.59468108 23 37.30 +33 02 13.6    ~C3Jq 19.27oVNEOCPT05
     C1HM9W2  C2019 12 03.60486808 23 44.75 +33 03 52.0    ~C3Jq 19.39oVNEOCPT05
     C1HM9W2 KC2019 12 03s%hLF@\4X@2TJFINYu]n6lbX_E-#-)vgq#3lAstrometry_!JYg$595
     C1HM9W2 KC2019 12 03)4'Xm#;amW-UilTPJYF]Q#pCKGv9%%M-7t0R5WcC2,i@\m\:?mqi595
     C1HM9W2 KC2019 12 03j4;k0.pi5W'/A3DxQAd]e+@XA\L;)D^M2SvahevF_A4^@e%*HDihK88
     C1HM9W2 KC2019 12 03W1$)a'd49,5YOUVOU;piyj.YuWWdy4OX/?yt.9ln(KC7[LGQwj*gK88
     C1HM9W2 KC2019 12 03y=0u[//dA'ta'Ho@n=sa:Uga`Qj,*.:)7$lEtP`!xUuFMw?4ktU,K88
     C1HM9W2 KC2019 12 034t^%ZBg6]pN;P`6ZG72V2X)dwqUL'b`Ue5B,KYyts)5/=6!OF3-*A17
     C1HM9W2 KC2019 12 03w+U-W\o=7I]ki,KF_y?C4(`$)6KqC/H(dU9!$1lMHs?k%D7w0afmA17
     C1HM9W2 KC2019 12 03Hjv8om5$iq1jPB6#j/B\h@M-8n*+pt[.jODHE7pM[FJrJ:[FP$g$A17
     C1HM9W2 KC2019 12 03e_pYi!*=6lae600,!'47'^cQxDx)?ag$W!G2+dHwhh6Rtk3b(;FkZ99
     C1HM9W2 KC2019 12 03lyjD(l=iZA[hf@-4=3_#U4nhvQredacted;]CBPBfN$YlmmgG(V3Z99
     C1HM9W2 KC2019 12 03H=G?clickP$%-39!UiR92OC.;K2N=Yu+#;m%XoEbs$o`qJo`WbM,K61
     C1HM9W2 KC2019 12 03_[!1HPN[K3)N/.`$-Q1K7(vaCSIp9/+:@-DHip6+Sna%so[JZa=]K61
     C1HM9W2 KC2019 12 03#`j0]5ow/#B2FlH+Efy`Er/'wjh9-%pmIvW`2L]uOY-O%UZJvZeAK61
     C1HM9W2 KC2019 12 03,tH)djvKIlrLiO2UJP+)85cGogC)Re6Mgsk2pq[i.+st:uDEZ(]IK61
     C1HM9W2 KC2019 12 04k*?X(em8l4f]F6.\Rxj8qRFcwZE4*6s#H!%here3H%\^=)tKe#/tL01
     C1HM9W2 KC2019 12 04MqtjnU5]9%VNWA;%9u;w8xK==RALpoTADxjShMlm).u`)k?Cf4tXL01
     C1HM9W2 KC2019 12 043uPRpW@1Ddc4=QacyDKt^Te#Q+kLc$Lfor_UX/24Ow2m:FdlaME_L01
     C1HM9W2  C2019 12 04.15192 08 30 51.10 +34 32 56.2    ~C4AM 19.5 VVNEOCP033
     C1HM9W2  C2019 12 04.15248 08 30 51.55 +34 33 01.6    ~C4AM 19.8 VVNEOCP033
     C1HM9W2  C2019 12 04.15304 08 30 51.99 +34 33 07.2    ~C4AM 19.8 VVNEOCP033
     C1HM9W2 KC2019 12 04R?C-_^jexplanationld.pjm%Vk7`hIS]JrOeyNKRGn9,oQQa_1`H36
     C1HM9W2 KC2019 12 04,7c(TK#0.'\7m[er32fs5X$Pt=b4#yw?[+v,c,:jh+7#p/k]PqVeH36

Station data:
(033) Karl Schwarzschild Observatory, Tautenburg  (N50.980140 E11.711240)
   Germany. 1.3-m Schmidt.
(595) Farra d'Isonzo  (N45.915734 E13.525780)  Italy.  Observers L.
   Bittesini, F. Fabris, E. Pettarin, F. Piani. Measurer E. Pettarin. 0.30-m
   f/4.5 reflector + CCD.
(A17) Guidestar Observatory, Weinheim  (N49.545393 E8.681520)  Germany.
(F52) Pan-STARRS 2, Haleakala  (N20.707384 W156.255910)  US/Hawaii. 1.8-m
   Ritchey-Chrétien + CCD.
(G96) Mt. Lemmon Survey  (N32.442754 W110.788720)  US/Arizona.  Observers T.
   A. Pruyne, B. M. Africano, E. J. Christensen, G. A. Farneth, D. C. Fuls,
   A. R. Gibbs, A. D. Grauer, H. Gröller, J. A. Johnson, R. A. Kowalski, S.
   M. Larson, G. J. Leonard, D. Rankin, R. L. Seaman, F. C. Shelly. 1.5-m
   reflector + 10K CCD.
(H36) Sandlot Observatory, Scranton  (N38.797693 W95.706400)  US/Kansas.
   Observer G. Hug. 0.56-m reflector + CCD.
(I52) Steward Observatory, Mt. Lemmon Station  (N32.442547 W110.788920)
   US/Arizona.  Observers T. A. Pruyne, B. M. Africano, E. J. Christensen, G.
   A. Farneth, D. C. Fuls, A. R. Gibbs, A. D. Grauer, H. Gröller, J. A.
   Johnson, R. A. Kowalski, S. M. Larson, G. J. Leonard, D. Rankin, R. L.
   Seaman, F. C. Shelly. 1.0-m reflector + CCD.
(K61) Rokycany Observatory  (N49.751403 E13.602600)  Czech Republic.
(K88) GINOP-KHK, Piszkéstető  (N47.917622 E19.893600)  Hungary.  Observer K.
   Sárneczky. 0.60-m Schmidt + CCD.
(L01) Višnjan Observatory, Tičan  (N45.290900 E13.749300)  Croatia.
   Observers K. Korlević, E. Pettarin. Measurer E. Pettarin. 1.0-m f/2.9
   reflector + CCD.
(T05) ATLAS-HKO, Haleakala  (N20.707573 W156.257010)  US/Hawaii.  Observers
   L. Denneau, A. Heinze, H. Weiland, J. Tonry, H. Flewelling, A.
   Fitzsimmons, D. Young, B. Stalder. Measurers L. Denneau, A. Heinze, J.
   Tonry. 0.5-m f/2.0 Schmidt + CCD.
(Z99) Clixby Observatory, Cleethorpes  (N53.546062 W0.021260)  UK.

Orbital elements:  C1HM9W2
   Perihelion 2020 Jan 13.602493 +/- 0.0938 TT = 14:27:35 (JD 2458862.102493)
Epoch 2019 Dec  4.0 TT = JDT 2458821.5   Earth MOID: 0.1211   AutoNEOCP
M 350.73810563 +/- 0.17             (J2000 ecliptic)
n   0.22811146 +/- 0.00378          Peri.   54.75278 +/- 0.08
a   2.65280076 +/- 0.0293           Node    73.71856 +/- 0.023
e   0.6413303 +/- 0.00384           Incl.   28.09217 +/- 0.08
P   4.32                   H 21.4   G  0.15   U  9.0  
q 0.95147916 +/- 0.000336    Q 4.35412236 +/- 0.06
From 47 observations 2019 Dec. 2-4; mean residual 0".23
Residuals in arcseconds: 
191202 G96  .20+  .03-    191203 L01  .17-  .04+    191203 A17  .26-  .29-    
191202 G96  .05+  .04-    191203 L01  .08-  .31-    191203 Z99  .21+  .29+    
191202 G96  .15+  .37+    191203 L01  .10-  .13-    191203 Z99  .02+  .20-    
191202 G96  .02+  .03-    191203 F52  .06+  .01+    191203 K61  .31-  .46+    
191202 I52  .03+  .06-    191203 F52  .08+  .10+    191203 K61  .14-  .11+    
191202 I52  .07+  .13-    191203 T05  .44+  .17+    191203 K61  .26-  .41-    
191202 I52  .02+  .09-    191203 T05  .24-  .10+    191203 K61  .24-  .23+    
191202 I52  .16-  .15-    191203 T05  .26+  .32+    191204 L01  .10+  .10-    
191202 I52  .00   .11-    191203 T05  .10-  .58-    191204 L01  .13+  .04+    
191202 I52  .06-  .47-    191203 595  .49+  .24+    191204 L01  .13-  .31+    
191202 I52  .13-  .13-    191203 595  .26-  .51-    191204 033  .27-  .18-    
191202 I52  .06-  .08-    191203 K88  .03+  .06-    191204 033  .15-  .29-    
191202 K88  .11-  .90+    191203 K88  .06+  .31+    191204 033  .16-  .20-    
191202 K88  .05-  .02+    191203 K88  .24+  .18+    191204 H36  .10+  .18-    
191202 K88  .15-  .23+    191203 A17  .08-  .22-    191204 H36  .36+  .36+    
191203 L01  .09+  .11-    191203 A17  .11+  .09+    

Ephemerides (geocentric):
Date (UTC) HH   RA              Dec         delta   r     elong  mag " sig PA
---- -- -- --  -------------   -----------  ------ ------ -----  --- ---- ---
2019 12 04 16  08 37 55.691   +35 57 59.51  .17430 1.1002 127.4 19.6 .124 141
2019 12 04 17  08 38 31.026   +36 04 52.32  .17415 1.0999 127.3 19.6 .128 142
2019 12 04 18  08 39 06.516   +36 11 45.21  .17400 1.0996 127.2 19.6 .131 142
2019 12 04 19  08 39 42.159   +36 18 38.16  .17385 1.0994 127.2 19.6 .135 143
2019 12 04 20  08 40 17.958   +36 25 31.16  .17370 1.0991 127.1 19.6 .139 143
2019 12 04 21  08 40 53.913   +36 32 24.20  .17355 1.0988 127.0 19.6 .142 144
2019 12 04 22  08 41 30.023   +36 39 17.25  .17341 1.0985 126.9 19.6 .146 144
2019 12 04 23  08 42 06.291   +36 46 10.32  .17326 1.0982 126.9 19.6 .150 145
2019 12 05 00  08 42 42.716   +36 53 03.38  .17312 1.0980 126.8 19.6 .154 146
2019 12 05 01  08 43 19.299   +36 59 56.42  .17298 1.0977 126.7 19.6 .158 146
2019 12 05 02  08 43 56.041   +37 06 49.44  .17284 1.0974 126.6 19.6 .163 147
2019 12 05 03  08 44 32.942   +37 13 42.41  .17270 1.0971 126.5 19.6 .167 147
2019 12 05 04  08 45 10.002   +37 20 35.32  .17256 1.0969 126.5 19.6 .171 148
2019 12 05 05  08 45 47.224   +37 27 28.15  .17243 1.0966 126.4 19.6 .175 148
2019 12 05 06  08 46 24.606   +37 34 20.90  .17230 1.0963 126.3 19.6 .180 149
2019 12 05 07  08 47 02.149   +37 41 13.55  .17216 1.0960 126.2 19.6 .184 149
2019 12 05 08  08 47 39.855   +37 48 06.09  .17203 1.0958 126.1 19.6 .189 150
2019 12 05 09  08 48 17.723   +37 54 58.49  .17190 1.0955 126.0 19.6 .194 150
2019 12 05 10  08 48 55.755   +38 01 50.76  .17178 1.0952 126.0 19.6 .198 151
2019 12 05 11  08 49 33.950   +38 08 42.86  .17165 1.0949 125.9 19.6 .203 151
2019 12 05 12  08 50 12.310   +38 15 34.80  .17153 1.0947 125.8 19.6 .208 152
2019 12 05 13  08 50 50.834   +38 22 26.54  .17140 1.0944 125.7 19.6 .213 152
2019 12 05 14  08 51 29.524   +38 29 18.09  .17128 1.0941 125.6 19.6 .218 153
2019 12 05 15  08 52 08.380   +38 36 09.41  .17116 1.0938 125.5 19.6 .223 153
2019 12 05 16  08 52 47.402   +38 43 00.51  .17104 1.0936 125.5 19.6 .228 154
2019 12 05 17  08 53 26.591   +38 49 51.36  .17093 1.0933 125.4 19.6 .233 154
2019 12 05 18  08 54 05.948   +38 56 41.95  .17081 1.0930 125.3 19.6 .238 155
2019 12 05 19  08 54 45.472   +39 03 32.26  .17070 1.0927 125.2 19.6 .244 155
2019 12 05 20  08 55 25.165   +39 10 22.28  .17059 1.0925 125.1 19.6 .249 156
2019 12 05 21  08 56 05.027   +39 17 11.99  .17048 1.0922 125.0 19.6 .255 156
2019 12 05 22  08 56 45.059   +39 24 01.38  .17037 1.0919 124.9 19.6 .260 157
2019 12 05 23  08 57 25.260   +39 30 50.44  .17026 1.0917 124.8 19.6 .266 157
2019 12 06 00  08 58 05.632   +39 37 39.14  .17015 1.0914 124.8 19.6 .271 158
2019 12 06 01  08 58 46.175   +39 44 27.47  .17005 1.0911 124.7 19.6 .277 158
2019 12 06 02  08 59 26.889   +39 51 15.41  .16995 1.0908 124.6 19.6 .283 159
2019 12 06 03  09 00 07.775   +39 58 02.95  .16984 1.0906 124.5 19.6 .289 159
2019 12 06 04  09 00 48.833   +40 04 50.08  .16974 1.0903 124.4 19.6 .295 160
2019 12 06 05  09 01 30.064   +40 11 36.78  .16965 1.0900 124.3 19.6 .301 160
2019 12 06 06  09 02 11.468   +40 18 23.02  .16955 1.0897 124.2 19.6 .307 161
2019 12 06 07  09 02 53.045   +40 25 08.80  .16945 1.0895 124.1 19.6 .313 161
2019 12 06 08  09 03 34.796   +40 31 54.10  .16936 1.0892 124.0 19.6 .320 162
2019 12 06 09  09 04 16.722   +40 38 38.91  .16927 1.0889 123.9 19.6 .326 162
2019 12 06 10  09 04 58.823   +40 45 23.20  .16918 1.0887 123.9 19.6 .333 163
2019 12 06 11  09 05 41.098   +40 52 06.96  .16909 1.0884 123.8 19.6 .339 163
2019 12 06 12  09 06 23.549   +40 58 50.18  .16900 1.0881 123.7 19.6 .346 164
2019 12 06 13  09 07 06.176   +41 05 32.83  .16892 1.0879 123.6 19.6 .352 164
2019 12 06 14  09 07 48.980   +41 12 14.90  .16883 1.0876 123.5 19.6 .359 165
2019 12 06 15  09 08 31.959   +41 18 56.38  .16875 1.0873 123.4 19.6 .366 165